Regional Weather Roundup
Issued by NWS Kansas City/Pleasant Hill, MO

Home | Current Version | Previous Version | Graphics & Text | Print | Product List | Glossary Off
Versions: 1 2 3 4 5 6 7 8 9 10 11 12 13 14 15 16 17 18 19 20 21 22 23 24 25 26 27 28 29 30 31 32 33 34 35 36 37 38 39 40 41 42 43 44 45 46 47 48 49 50

000
ASUS43 KEAX 011604
RWREAX

WEATHER ROUNDUP FOR EASTERN KANSAS AND NORTHWEST MISSOURI
NATIONAL WEATHER SERVICE KANSAS CITY/PLEASANT HILL MO
1100 AM CDT WED JUL 01 2015

KSZ040-057-103>105-MOZ028-029-037-043-011700-
...KANSAS CITY METROPOLITAN AREA...

CITY           SKY/WX    TMP DP  RH WIND       PRES   REMARKS
K.C. INTL      PTSUNNY   75  71  87 S13       29.84R
K.C. DOWNTOWN  PTSUNNY   77  70  79 S13G20    29.83S
LEES SUMMIT    PTSUNNY   75  70  84 S12G22    29.85F
OLATHE - IXD   PTSUNNY   75  71  87 SE18      29.85F
OLATHE - OJC   PTSUNNY   76  71  85 S18       29.84F
LAWRENCE       PTSUNNY   75  70  84 SE14      29.83F

$$

MOZ001>008-011>017-020>025-030>033-038>040-044>046-053-054-011700-
...NORTHERN AND CENTRAL MISSOURI...

CITY           SKY/WX    TMP DP  RH WIND       PRES   REMARKS
ST. JOSEPH     MOSUNNY   77  69  76 E9        29.86S
MOSBY          CLOUDY    72  70  94 E7        29.86R
HARRISONVILLE  PTSUNNY   77  72  83 SE12      29.89S
WHITEMAN AFB   LGT RAIN  69  69 100 S16G23    29.87R
CLINTON        CLOUDY    72  72 100 SE12      29.89F
SEDALIA        CLOUDY    72  68  87 S10       29.90F
WARSAW         NOT AVBL
CHILLICOTHE      N/A     74  70  87 E5        29.92R
KIRKSVILLE     PTSUNNY   78  68  71 CALM      29.94R

$$

MOZ041-047>049-056>058-063>065-088>090-097-011700-
...EASTERN AND SOUTHERN MISSOURI...

CITY           SKY/WX    TMP DP  RH WIND       PRES   REMARKS
ST. LOUIS INTL CLOUDY    78  68  71 W9        29.93F
SPIRIT OF STL  CLOUDY    76  70  82 W8        29.91F
COLUMBIA       CLOUDY    74  69  85 S15G22    29.91F
JEFFERSON CITY CLOUDY    73  67  81 S9        29.90F
MEXICO         CLOUDY   N/A N/A N/A S9G16     29.91F
ROLLA          CLOUDY    67  66  97 S16       29.94F
LEBANON        RAIN      66  64  94 SE3       29.98F
OSAGE BEACH    CLOUDY    68  64  88 S7        29.94F
SPRINGFIELD    CLOUDY    71  66  84 E10       29.98F
BRANSON        PTSUNNY   73  68  83 CALM      30.03R
NEVADA         CLOUDY    70  68  94 SE14G21   29.91F
JOPLIN         CLOUDY    81  74  79 SE12      29.93F
WEST PLAINS    LGT RAIN  68  65  90 NE7       30.02F
MALDEN         LGT RAIN  73  68  83 NW15G23   29.99F

$$

IAZ060-094-KSZ022-034>040-054-083-096-NEZ052-066-093-011700-
...KANSAS...SOUTHEAST NEBRASKA AND IOWA...

CITY           SKY/WX    TMP DP  RH WIND       PRES   REMARKS
TOPEKA         PTSUNNY   81  71  71 S14G23    29.81F
MANHATTAN      MOSUNNY   88  65  46 SW12      29.77F HX  90
EMPORIA        CLOUDY    80  67  64 S14       29.83S
WICHITA        MOSUNNY   91  63  39 SW16      29.80F HX  92
OMAHA          PTSUNNY   77  68  73 SE15      29.87F
LINCOLN        MOSUNNY   78  69  73 E12       29.85F
FALLS CITY     CLOUDY    77  70  79 E10       29.85R
LAMONI         LGT RAIN  71  67  87 SE7       29.89R
DES MOINES     CLOUDY    72  62  71 NE5       29.94R

$$




USA.gov is the U.S. government's official web portal to all federal, state and local government web resources and services.